User: anonymous   Login
Location: Unspecified
(0.0000°N, 0.0000°E)
Time: 15:38:26
(UTC+01:00)
Language:

IUS-9 SRM-1 - Orbit

View from above orbital plane
View from above orbital plane
View from above satellite
View from above satellite

Ground track
Ground track

The orbit data is extracted from the following two-line orbital elements,

1 19884U 89021C   16344.45002174  .00008044  00000-0  75327-3 0  9994
2 19884  26.3925 151.9320 5974027  57.5368 346.7786  4.11580516326146
Epoch (UTC): 09 December 2016 10:48:01
Eccentricity: 0.5974027
inclination: 26.3925°
perigee height: 243 km
apogee height: 19895 km
right ascension of ascending node: 151.9320°
argument of perigee: 57.5368°
revolutions per day: 4.11580516
mean anomaly at epoch: 346.7786°
orbit number at epoch: 32614

The dashed part of the orbit path shows where the satellite is in the earth's shadow,  

DLR